Погода в Дмитриевке

Россия / Оренбургская область     52°00′21″N   55°31′14″E
темп.,
°C
ветер,
м/с
пор.,
м/с
влажн.,
%
обл.,
%
осадки,
мм/ч
давл.,
гПа
погр.,
м
24 мая, вт
вт2423:00+11ююв33937 3.3 100252
02:00+9ююв35945 0.0 100384
05:00+9ю349585 0.0 100465
08:00+12зюз1285100 0.0 1003186
11:00+16зюз1274100 0.0 1005649
14:00+14с2289100 0.9 1005113
17:00+16с2274100 1.3 1005528
20:00+13ссз4895100 0.7 1005346
25 мая, ср
ср2523:00+12ссз5897100 2.1 1005323
02:00+10с4897100 3.4 1005285
05:00+10ссз61195100 4.8 1005539
08:00+10сз61195100 3.2 1006539
11:00+10сз4892100 6.1 1008548
14:00+16з4652100 0.1 10101907
17:00+17зюз5647100 0.1 10102347
20:00+13з497393 0.0 1011368
26 мая, чт
чт2623:00+8сз510795 0.0 1013305
02:00+6сз36863 0.0 1014139
05:00+4сз35890 0.0 1015108
08:00+8сз46745 0.0 1015505
11:00+12сз56545 0.0 10161339
14:00+14зсз45485 0.0 10161688
17:00+15зсз344528 0.0 10161931
20:00+13з246277 0.0 101575
27 мая, пт
пт2723:00+11зюз346417 0.0 101692
02:00+9зюз226679 0.0 101721
05:00+10ю1162100 0.0 101612
08:00+12ююз236392 0.0 1017289
11:00+15ююз345164 0.0 10161459
14:00+17ююз444896 0.0 10151601
17:00+18ююз4547100 0.0 10141910
20:00+16ю3364100 0.0 101357
28 мая, сб
сб2823:00+13зюз4976100 0.1 1013339
02:00+12ююз4108378 0.3 1013474
05:00+10ююз4994100 0.4 1013207
08:00+13юз598571 0.7 1014659
11:00+16зюз567029 0.8 10141091
14:00+20зюз675258 0.1 10152002
17:00+20зюз674822 0.1 10151971
20:00+18зюз346666 0.0 101769